Cortland County-chase Field, NY

6:14 PM EDT on April 28, 2017 (GMT -0400)
Cortland County-chase Field

Weather History for KN03 - December, 2013

Change the Weather History Date:

Tuesday, December 3, 2013

  Actual Average (KITH) Record (KITH)
Temperature  
Mean Temperature 30 °F -  
Max Temperature 37 °F 39 °F 64 °F (1941)
Min Temperature 23 °F 22 °F 0 °F (1940)
Degree Days  
Heating Degree Days 34    
Moisture  
Dew Point 31 °F    
Average Humidity 94    
Maximum Humidity 100    
Minimum Humidity 75    
Precipitation  
Precipitation 0.00 in - - ()
Sea Level Pressure  
Sea Level Pressure 29.94 in    
Wind  
Wind Speed 0 mph (West)    
Max Wind Speed 6 mph    
Max Gust Speed -    
Visibility 6 miles    
Events Rain    
Averages and records for this station are not official NWS values.
T = Trace of Precipitation, MM = Missing Value Source: NWS Daily Summary

Daily Weather History Graph

Daily Weather History Graph

Search for Another Location

Airport or City:

Trip Planner

Search our weather history database for the weather conditions in past years. The results will help you decide how hot, cold, wet, or windy it might be!

Date:

Astronomy

Dec. 03, 2013 Rise Set
Actual Time 7:17 AM EST 4:31 PM EST
Civil Twilight 6:45 AM EST 5:03 PM EST
Nautical Twilight 6:10 AM EST 5:38 PM EST
Astronomical Twilight 5:36 AM EST 6:12 PM EST
Moon 7:43 AM EST (12/3) 5:33 PM EST (12/3)
Length of Visible Light 10h 17m
Length of Day
9h 14m
New Moon, 1% of the Moon is Illuminated
Dec 3
New Moon
Dec 9
First Quarter
Dec 17
Full
Dec 25
Last Quarter
Jan 1
New

Hourly Weather History & Observations

Time (EST) Temp. Windchill Dew Point Humidity Pressure Visibility Wind Dir Wind Speed Gust Speed Precip Events Conditions
12:15 AM 32.0 °F - 32.0 °F 100% 29.87 in 5.0 mi Calm Calm - N/A   Mostly Cloudy
12:35 AM 32.0 °F - 32.0 °F 100% 29.88 in 4.0 mi Calm Calm - N/A   Mostly Cloudy
12:55 AM 32.0 °F - 32.0 °F 100% 29.89 in 3.0 mi Calm Calm - N/A   Overcast
1:15 AM 32.0 °F - 32.0 °F 100% 29.89 in 4.0 mi Calm Calm - N/A   Overcast
1:35 AM 32.0 °F - 32.0 °F 100% 29.89 in 4.0 mi Calm Calm - N/A Rain Light Rain
1:55 AM 32.0 °F - 32.0 °F 100% 29.90 in 4.0 mi Calm Calm - N/A Rain Rain
2:15 AM 32.0 °F - 32.0 °F 100% 29.90 in 4.0 mi Calm Calm - N/A Rain Light Rain
2:35 AM 32.0 °F - 32.0 °F 100% 29.90 in 3.0 mi Calm Calm - N/A   Overcast
2:55 AM 33.8 °F - 33.8 °F 100% 29.90 in 3.0 mi Calm Calm - N/A Rain Light Rain
3:15 AM 33.8 °F - 33.8 °F 100% 29.90 in 3.0 mi Calm Calm - N/A Rain Rain
3:35 AM 33.8 °F - 33.8 °F 100% 29.90 in 2.5 mi Calm Calm - N/A   Overcast
3:55 AM 33.8 °F - 33.8 °F 100% 29.90 in 2.5 mi Calm Calm - N/A   Overcast
4:15 AM 33.8 °F - 33.8 °F 100% 29.91 in 3.0 mi Calm Calm - N/A   Overcast
4:35 AM 33.8 °F - 33.8 °F 100% 29.91 in 4.0 mi Calm Calm - N/A   Overcast
4:55 AM 33.8 °F - 33.8 °F 100% 29.91 in 2.5 mi Calm Calm - N/A   Overcast
5:15 AM 33.8 °F - 33.8 °F 100% 29.91 in 2.0 mi Calm Calm - N/A   Overcast
5:35 AM 33.8 °F - 33.8 °F 100% 29.91 in 2.0 mi Calm Calm - N/A   Overcast
5:55 AM 33.8 °F - 33.8 °F 100% 29.91 in 2.0 mi Calm Calm - N/A   Overcast
6:15 AM 33.8 °F - 33.8 °F 100% 29.92 in 1.5 mi Calm Calm - N/A   Overcast
6:35 AM 33.8 °F - 33.8 °F 100% 29.92 in 1.5 mi Calm Calm - N/A   Overcast
6:55 AM 33.8 °F - 33.8 °F 100% 29.92 in 1.2 mi Calm Calm - N/A   Overcast
7:15 AM 33.8 °F - 33.8 °F 100% 29.92 in 1.8 mi Calm Calm - N/A   Overcast
7:35 AM 33.8 °F - 33.8 °F 100% 29.92 in 1.0 mi Calm Calm - N/A   Overcast
7:55 AM 33.8 °F - 33.8 °F 100% 29.93 in 3.0 mi Calm Calm - N/A   Overcast
8:15 AM 33.8 °F - 32.0 °F 93% 29.93 in 5.0 mi Calm Calm - N/A   Overcast
8:35 AM 33.8 °F - 32.0 °F 93% 29.93 in 5.0 mi Calm Calm - N/A   Overcast
8:55 AM 33.8 °F - 32.0 °F 93% 29.94 in 5.0 mi Calm Calm - N/A   Overcast
9:15 AM 33.8 °F - 32.0 °F 93% 29.94 in 5.0 mi Calm Calm - N/A   Overcast
9:35 AM 33.8 °F - 32.0 °F 93% 29.94 in 5.0 mi Calm Calm - N/A   Overcast
9:55 AM 35.6 °F - 32.0 °F 87% 29.94 in 5.0 mi Calm Calm - N/A   Overcast
10:15 AM 35.6 °F - 32.0 °F 87% 29.95 in 7.0 mi Calm Calm - N/A   Overcast
10:35 AM 35.6 °F - 32.0 °F 87% 29.95 in 7.0 mi Calm Calm - N/A   Overcast
10:55 AM 35.6 °F - 32.0 °F 87% 29.95 in 7.0 mi Calm Calm - N/A   Overcast
11:15 AM 35.6 °F - 32.0 °F 87% 29.94 in 7.0 mi Calm Calm - N/A   Overcast
11:35 AM 35.6 °F 32.8 °F 32.0 °F 87% 29.94 in 5.0 mi SW 3.5 mph - N/A   Overcast
11:55 AM 35.6 °F 32.8 °F 32.0 °F 87% 29.93 in 5.0 mi WSW 3.5 mph - N/A   Overcast
12:15 PM 35.6 °F - 32.0 °F 87% 29.93 in 7.0 mi Calm Calm - N/A   Overcast
12:35 PM 37.4 °F 33.8 °F 32.0 °F 81% 29.92 in 10.0 mi West 4.6 mph - N/A   Overcast
12:55 PM 37.4 °F 34.9 °F 32.0 °F 81% 29.92 in 10.0 mi WSW 3.5 mph - N/A   Overcast
1:15 PM 37.4 °F 32.8 °F 32.0 °F 81% 29.92 in 10.0 mi West 5.8 mph - N/A   Overcast
1:35 PM 37.4 °F - 32.0 °F 81% 29.92 in 10.0 mi Calm Calm - N/A   Overcast
1:55 PM 37.4 °F 32.8 °F 30.2 °F 75% 29.92 in 10.0 mi West 5.8 mph - N/A   Overcast
2:15 PM 37.4 °F 34.9 °F 30.2 °F 75% 29.92 in 10.0 mi NW 3.5 mph - N/A   Overcast
2:35 PM 37.4 °F - 32.0 °F 81% 29.91 in 10.0 mi Calm Calm - N/A   Overcast
2:55 PM 37.4 °F - 32.0 °F 81% 29.93 in 10.0 mi Calm Calm - N/A   Overcast
3:15 PM 37.4 °F - 32.0 °F 81% 29.94 in 10.0 mi Calm Calm - N/A   Overcast
3:35 PM 37.4 °F 33.8 °F 32.0 °F 81% 29.95 in 10.0 mi West 4.6 mph - N/A   Overcast
3:55 PM 37.4 °F 33.8 °F 32.0 °F 81% 29.95 in 10.0 mi WSW 4.6 mph - N/A   Mostly Cloudy
4:15 PM 35.6 °F - 32.0 °F 87% 29.96 in 10.0 mi Calm Calm - N/A   Scattered Clouds
4:35 PM 33.8 °F - 32.0 °F 93% 29.96 in 10.0 mi Calm Calm - N/A   Clear
4:55 PM 32.0 °F - 32.0 °F 100% 29.96 in 10.0 mi Calm Calm - N/A   Clear
5:15 PM 32.0 °F - 30.2 °F 93% 29.96 in 10.0 mi Calm Calm - N/A   Clear
5:35 PM 32.0 °F - 30.2 °F 93% 29.96 in 7.0 mi Calm Calm - N/A   Clear
5:55 PM 30.2 °F - 30.2 °F 100% 29.96 in 7.0 mi Calm Calm - N/A   Clear
6:15 PM 30.2 °F - 30.2 °F 100% 29.96 in 7.0 mi Calm Calm - N/A   Clear
6:35 PM 30.2 °F - 28.4 °F 93% 29.97 in 7.0 mi Calm Calm - N/A   Clear
6:55 PM 30.2 °F - 30.2 °F 100% 29.98 in 7.0 mi Calm Calm - N/A   Clear
7:15 PM 30.2 °F - 30.2 °F 100% 29.98 in 7.0 mi Calm Calm - N/A   Clear
7:35 PM 28.4 °F - 28.4 °F 100% 29.98 in 5.0 mi Calm Calm - N/A   Clear
7:55 PM 28.4 °F - 28.4 °F 100% 29.98 in 7.0 mi Calm Calm - N/A   Clear
8:15 PM 26.6 °F - 26.6 °F 100% 29.99 in 5.0 mi Calm Calm - N/A   Clear
8:35 PM 26.6 °F - 26.6 °F 100% 29.99 in 5.0 mi Calm Calm - N/A   Clear
8:55 PM 26.6 °F - 26.6 °F 100% 29.99 in 5.0 mi Calm Calm - N/A   Clear
9:15 PM 26.6 °F - 26.6 °F 100% 29.99 in 5.0 mi Calm Calm - N/A   Clear
9:35 PM 26.6 °F - 26.6 °F 100% 29.99 in 5.0 mi Calm Calm - N/A   Clear
9:55 PM 26.6 °F - 26.6 °F 100% 30.00 in 5.0 mi Calm Calm - N/A   Clear
10:15 PM 26.6 °F - 26.6 °F 100% 30.00 in 5.0 mi Calm Calm - N/A   Clear
10:35 PM 26.6 °F - 26.6 °F 100% 30.00 in 5.0 mi Calm Calm - N/A   Clear
10:55 PM 24.8 °F - 24.8 °F 100% 30.00 in 5.0 mi Calm Calm - N/A   Clear
11:15 PM 26.6 °F - 26.6 °F 100% 30.00 in 5.0 mi Calm Calm - N/A   Clear
11:35 PM 24.8 °F - 24.8 °F 100% 30.00 in 5.0 mi Calm Calm - N/A   Clear
11:55 PM 23.0 °F - 23.0 °F 100% 30.00 in 5.0 mi Calm Calm - N/A   Clear